Regional Weather Roundup
Issued by NWS

Home | Current Version | Previous Version | Graphics & Text | Print | Product List | Glossary On
Versions: 1 2 3 4 5 6 7 8 9 10 11 12 13 14 15 16 17 18 19 20 21 22 23 24 25 26 27 28 29 30 31 32 33 34 35 36 37 38 39 40 41 42 43 44 45 46 47 48 49 50
000
ASUS43 KFSD 281910
RWRSD

WEATHER ROUNDUP FOR SOUTH DAKOTA
NATIONAL WEATHER SERVICE SIOUX FALLS SD
200 PM CDT THU MAY 28 2015

NOTE: "FAIR" INDICATES FEW OR NO CLOUDS BELOW 12,000 FEET WITH NO
SIGNIFICANT WEATHER AND/OR OBSTRUCTIONS TO VISIBILITY.


SDZ001>005-009-010-012>017-282000-
NORTHWEST AND NORTH CENTRAL SOUTH DAKOTA

CITY           SKY/WX    TMP DP  RH WIND       PRES   REMARKS
BUFFALO          N/A     71  50  47 NW8       29.88R
FAITH            N/A     76  55  48 NE10      29.89F
MOBRIDGE       PTSUNNY   75  60  59 S5        29.84F
$$

SDZ012>016-024>037-041>051-057-063-072>074-282000-
SOUTHWEST AND SOUTH CENTRAL SOUTH DAKOTA

CITY           SKY/WX    TMP DP  RH WIND       PRES   REMARKS
RAPID CTY ARPT LGT RAIN  66  54  65 NW14      29.95S
PIERRE         SUNNY     78  60  53 MISG      29.84F
CUSTER         CLOUDY    59  48  67 NE9       30.02F
ELLSWORTH AFB  LGT RAIN  65  56  72 N9        29.95S
PHILIP         MOSUNNY   76  61  59 N6        29.89F
PINE RIDGE     PTSUNNY   75  48  38 W14       29.93F
SPEARFISH      FAIR      64  54  68 NW10      29.99S
WINNER         FAIR      83  56  39 S14       29.89F
$$

SDZ004>011-016>023-039-040-282000-
NORTHEAST SOUTH DAKOTA

CITY           SKY/WX    TMP DP  RH WIND       PRES   REMARKS
ABERDEEN       SUNNY     83  59  44 S25       29.83F
WATERTOWN      MOSUNNY   76  59  55 S25G35    29.92F
BROOKINGS      MOSUNNY   79  61  53 S22G30    29.95F
SISSETON         N/A     83  59  44 S29G37    29.86F
$$

SDZ017-020-022-023-036>040-048>070-282000-
SOUTHEAST SOUTH DAKOTA

CITY           SKY/WX    TMP DP  RH WIND       PRES   REMARKS
SIOUX FALLS    MOSUNNY   81  58  45 S18G25    29.95F
HURON            N/A    N/A N/A N/A MISG      29.87F
CHAMBERLAIN    PTSUNNY   79  58  47 S14G21    29.88S
MITCHELL       MOSUNNY   84  59  42 S17G28    29.89F
YANKTON        MOSUNNY   82  59  44 SE17      29.92S
$$

ABBREVIATIONS USED IN REMARKS
   TC - TEMPERATURE IN CELSIUS
  WCI - WIND CHILL INDEX
   HX - HEAT INDEX
  VSB - VISIBILITY



USA.gov is the U.S. government's official web portal to all federal, state and local government web resources and services.